User: anonymous   Login
Location: Bojarzin Observatory
(39.7980°N, 89.7627°W)
Time: 00:46:37
(UTC-06:00)
Language:

ISS - Orbit

View from above orbital plane
View from above orbital plane
View from above satellite
View from above satellite

Ground track
Ground track

The orbit data is extracted from the following two-line orbital elements,

1 25544U 98067A   16040.89929207  .00012681  00000-0  19534-3 0  9990
2 25544  51.6455 337.7904 0007048  99.9517   6.8636 15.54554246985024
Epoch (UTC): 09 February 2016 21:34:58
Eccentricity: 0.0007048
inclination: 51.6455°
perigee height: 398 km
apogee height: 408 km
right ascension of ascending node: 337.7904°
argument of perigee: 99.9517°
revolutions per day: 15.54554246
mean anomaly at epoch: 6.8636°
orbit number at epoch: 98502

The dashed part of the orbit path shows where the satellite is in the earth's shadow,  

DLR